Creek Data

    Home     View Charts     View Raw Data     Messages

ID Distance Battery Voltage Battery Current Internal Temp Internal Humidity External Temp Solar Input rssi snr Time Stamp Record
35879 0.0 3.96 -7 47 40 48 4.5 -83 8 03/24/2025 07:15 AM 17650
35878 0.0 3.96 -8 46 40 48 1.6 -83 7 03/24/2025 07:00 AM 17649
35877 0.0 3.97 -5 46 39 48 0.7 -83 8 03/24/2025 06:45 AM 17648
35876 0.0 4.02 -5 46 40 48 0 -84 8 03/24/2025 06:30 AM 17647
35875 0.0 3.97 -5 45 40 48 0 -84 8 03/24/2025 06:15 AM 17646
35874 0.0 4.02 -5 45 40 46 0 -83 8 03/24/2025 06:00 AM 17645
35873 0.0 3.97 -5 46 40 47 0 -83 8 03/24/2025 05:45 AM 17644
35872 0.0 3.97 -5 47 40 48 0 -83 7 03/24/2025 05:30 AM 17643
35871 0.0 3.97 -5 47 40 48 0 -84 7 03/24/2025 05:15 AM 17642
35870 0.0 3.97 -5 47 40 49 0.1 -83 8 03/24/2025 05:00 AM 17641
35869 0.0 4.03 -5 47 40 47 0 -83 8 03/24/2025 04:45 AM 17640
35868 0.0 3.98 -5 47 40 49 0 -83 7 03/24/2025 04:30 AM 17639
35867 0.0 4.03 -5 47 40 49 0.1 -83 7 03/24/2025 04:15 AM 17638
35866 0.0 3.98 -5 47 40 49 0.1 -83 8 03/24/2025 04:00 AM 17637
35865 0.0 3.98 -5 47 40 48 0 -82 7 03/24/2025 03:45 AM 17636
35864 0.0 3.98 -5 47 40 49 0 -82 8 03/24/2025 03:30 AM 17635
35863 0.0 3.98 -5 47 40 48 0 -83 7 03/24/2025 03:15 AM 17634
35862 0.0 4.03 -5 46 40 46 0.1 -82 7 03/24/2025 03:00 AM 17633
35861 0.0 4.03 -5 46 40 47 0 -82 8 03/24/2025 02:46 AM 17632
35860 0.0 3.98 -5 47 40 48 0 -83 8 03/24/2025 02:30 AM 17631
35859 0.0 3.98 -5 47 41 49 0 -84 8 03/24/2025 02:15 AM 17630
35858 0.0 4.04 -5 47 41 48 0 -83 8 03/24/2025 02:00 AM 17629
35857 0.0 3.98 -5 47 41 49 0 -83 7 03/24/2025 01:45 AM 17628
35856 0.0 3.99 -5 48 41 49 0 -83 8 03/24/2025 01:30 AM 17627
35855 0.0 3.99 -5 48 41 49 0.1 -82 8 03/24/2025 01:15 AM 17626